TimeEST,TemperatureF,Dew PointF,Humidity,Sea Level PressureIn,VisibilityMPH,Wind Direction,Wind SpeedMPH,Gust SpeedMPH,PrecipitationIn,Events,Conditions,WindDirDegrees,DateUTC
12:53 AM,37.0,35.1,93,30.18,10.0,Calm,Calm,-,N/A,,Partly Cloudy,0,2012-11-20 05:53:00
1:53 AM,37.0,36.0,96,30.16,10.0,Calm,Calm,-,N/A,,Clear,0,2012-11-20 06:53:00
2:53 AM,36.0,34.0,93,30.15,9.0,Calm,Calm,-,N/A,,Partly Cloudy,0,2012-11-20 07:53:00
3:53 AM,37.0,36.0,96,30.14,9.0,Calm,Calm,-,N/A,,Scattered Clouds,0,2012-11-20 08:53:00
4:53 AM,37.0,35.1,93,30.15,6.0,Calm,Calm,-,N/A,,Scattered Clouds,0,2012-11-20 09:53:00
5:53 AM,37.9,37.0,97,30.16,8.0,Calm,Calm,-,N/A,,Mostly Cloudy,0,2012-11-20 10:53:00
6:53 AM,37.9,37.0,97,30.17,9.0,Calm,Calm,-,N/A,,Overcast,0,2012-11-20 11:53:00
7:53 AM,39.0,37.0,93,30.17,8.0,Calm,Calm,-,N/A,,Overcast,0,2012-11-20 12:53:00
8:53 AM,41.0,39.0,93,30.19,8.0,Calm,Calm,-,N/A,,Overcast,0,2012-11-20 13:53:00
9:53 AM,44.1,41.0,89,30.19,8.0,Calm,Calm,-,N/A,,Mostly Cloudy,0,2012-11-20 14:53:00
10:53 AM,46.9,42.1,83,30.18,10.0,Calm,Calm,-,N/A,,Mostly Cloudy,0,2012-11-20 15:53:00
11:53 AM,53.1,41.0,64,30.14,10.0,Calm,Calm,-,N/A,,Scattered Clouds,0,2012-11-20 16:53:00
12:53 PM,57.0,37.9,49,30.10,10.0,Calm,Calm,-,N/A,,Scattered Clouds,0,2012-11-20 17:53:00
1:53 PM,61.0,35.1,38,30.08,10.0,Variable,5.8,-,N/A,,Partly Cloudy,0,2012-11-20 18:53:00
2:53 PM,61.0,33.1,35,30.06,10.0,Calm,Calm,-,N/A,,Partly Cloudy,0,2012-11-20 19:53:00
3:53 PM,61.0,33.1,35,30.06,10.0,Calm,Calm,-,N/A,,Partly Cloudy,0,2012-11-20 20:53:00
4:53 PM,59.0,30.9,35,30.05,10.0,Calm,Calm,-,N/A,,Clear,0,2012-11-20 21:53:00
5:53 PM,51.1,33.1,50,30.07,10.0,Calm,Calm,-,N/A,,Partly Cloudy,0,2012-11-20 22:53:00
6:53 PM,45.0,33.1,63,30.09,10.0,Calm,Calm,-,N/A,,Clear,0,2012-11-20 23:53:00
7:53 PM,43.0,34.0,71,30.10,10.0,Calm,Calm,-,N/A,,Clear,0,2012-11-21 00:53:00
8:53 PM,39.0,33.1,79,30.11,10.0,Calm,Calm,-,N/A,,Clear,0,2012-11-21 01:53:00
9:53 PM,39.0,33.1,79,30.12,10.0,Calm,Calm,-,N/A,,Clear,0,2012-11-21 02:53:00
10:53 PM,37.0,32.0,82,30.12,10.0,Calm,Calm,-,N/A,,Partly Cloudy,0,2012-11-21 03:53:00
11:53 PM,37.0,32.0,82,30.12,10.0,Calm,Calm,-,N/A,,Partly Cloudy,0,2012-11-21 04:53:00